Skip Page Navigation
NASA JPL Caltech
NASA Logo - Jet Propulsion Laboratory + View the NASA Portal
+ Center for Near-Earth Object Studies
JPL Home Earth Solar System Stars & Galaxies Technology
JPL Solar System Dynamics
BODIES ORBITS EPHEMERIDES TOOLS PHYSICAL DATA DISCOVERY FAQ SITE MAP
JPL Small-Body Database Browser
Search: [ help ]  
134759 (2000 CJ33)
Classification: Mars-crossing Asteroid          SPK-ID: 2134759
Ephemeris | Orbit Diagram | Orbital Elements | Mission Design | Physical Parameters | Discovery Circumstances ]

[ show orbit diagram ]
Orbital Elements at Epoch 2459200.5 (2020-Dec-17.0) TDB
Reference: JPL 14 (heliocentric ecliptic J2000)
 Element Value Uncertainty (1-sigma)   Units 
e .1042782980733903 5.0697e-08  
a 1.839724040959475 5.5172e-09 au
q 1.647880749043521 9.349e-08 au
i 27.949438306987 8.3084e-06 deg
node 139.1611480148018 7.1297e-06 deg
peri 245.0294557213763 3.5565e-05 deg
M 229.3654392690242 3.4699e-05 deg
tp 2459531.237196513612
(2021-Nov-12.73719651)
8.828e-05 TDB
period 911.4386734923795
2.50
4.1e-06
1.123e-08
d
yr
n .3949799481522768 1.7768e-09 deg/d
Q 2.031567332875429 6.0925e-09 au
  Orbit Determination Parameters
   # obs. used (total)      578  
   data-arc span      7384 days (20.22 yr)  
   first obs. used      2000-02-01  
   last obs. used      2020-04-20  
   planetary ephem.      DE431  
   SB-pert. ephem.      SB431-N16  
   condition code      0  
   norm. resid. RMS      .57916  
   source      ORB  
   producer      Otto Matic  
   solution date      2020-Nov-12 16:06:33  

Additional Information
 Earth MOID = .711241 au 
 Jupiter MOID = 3.30012 au 
 T_jup = 3.873 
[ show covariance matrix ]

Ephemeris | Orbit Diagram | Orbital Elements | Mission Design | Physical Parameters | Discovery Circumstances ]

Physical Parameter Table
Parameter Symbol Value Units Sigma Reference Notes
absolute magnitude H 17.38   n/a E2021B55  

134759 (2000 CJ33)          Discovered 2000-Feb-01 by CSS at Catalina
Reference: 20060907/Numbers.arcLast Updated: 2006-09-10

Alternate Designations
 2000 CJ33 = 2001 PG48 
Ephemeris | Orbit Diagram | Orbital Elements | Mission Design | Physical Parameters | Discovery Circumstances ]
ABOUT SSD CREDITS/AWARDS PRIVACY/COPYRIGHT GLOSSARY LINKS
FirstGov 2021-Apr-10 13:04 UT
(server date/time)  
NASA Home Page
Site Manager:   Ryan S. Park
Webmaster  Alan B. Chamberlin